Mansfield Center, CT

8:43 PM EST on February 22, 2017 (GMT -0500)
Windham

Weather History for KIJD - October, 2012

Change the Weather History Date:

Tuesday, October 23, 2012

  Actual Average Record
Temperature  
Mean Temperature 52 °F -  
Max Temperature 64 °F 62 °F 86 °F (1979)
Min Temperature 42 °F 33 °F 19 °F (1997)
Degree Days  
Heating Degree Days 12    
Growing Degree Days 2 (Base 50)    
Moisture  
Dew Point 43 °F    
Average Humidity 69    
Maximum Humidity 90    
Minimum Humidity 45    
Precipitation  
Precipitation 0.06 in - - ()
Sea Level Pressure  
Sea Level Pressure 30.09 in    
Wind  
Wind Speed 1 mph (West)    
Max Wind Speed 7 mph    
Max Gust Speed -    
Visibility 10 miles    
Events Rain    
Averages and records for this station are not official NWS values.
T = Trace of Precipitation, MM = Missing Value Source: NWS Daily Summary

Daily Weather History Graph

Daily Weather History Graph

Search for Another Location

Airport or City:

Trip Planner

Search our weather history database for the weather conditions in past years. The results will help you decide how hot, cold, wet, or windy it might be!

Date:

Astronomy

Oct. 23, 2012 Rise Set
Actual Time 7:10 AM EDT 5:54 PM EDT
Civil Twilight 6:42 AM EDT 6:23 PM EDT
Nautical Twilight 6:09 AM EDT 6:55 PM EDT
Astronomical Twilight 5:37 AM EDT 7:27 PM EDT
Moon 2:41 PM EDT 12:54 AM EDT
Length of Visible Light 11h 40m
Length of Day
10h 43m
Waxing Gibbous, 66% of the Moon is Illuminated
Oct 23
Waxing Gibbous
Oct 29
Full
Nov 6
Last Quarter
Nov 13
New
Nov 20
First Quarter

Hourly Weather History & Observations

Time (EDT) Temp. Windchill Dew Point Humidity Pressure Visibility Wind Dir Wind Speed Gust Speed Precip Events Conditions
12:52 AM 54.0 °F - 39.0 °F 57% 30.05 in 10.0 mi Calm Calm - N/A   Clear
2:52 AM 45.0 °F - 39.0 °F 80% 30.04 in 10.0 mi Calm Calm - N/A   Clear
3:52 AM 43.0 °F 41.3 °F 39.0 °F 86% 30.06 in 10.0 mi WSW 3.5 mph - N/A   Clear
4:52 AM 44.1 °F 42.5 °F 39.0 °F 82% 30.06 in 10.0 mi NNE 3.5 mph - N/A   Clear
6:52 AM 42.1 °F - 37.9 °F 85% 30.09 in 10.0 mi Calm Calm - N/A   Clear
7:52 AM 45.0 °F - 41.0 °F 86% 30.11 in 10.0 mi Calm Calm - N/A   Clear
8:52 AM 48.9 °F - 42.1 °F 77% 30.13 in 10.0 mi Calm Calm - N/A   Clear
9:52 AM 57.0 °F - 43.0 °F 59% 30.12 in 10.0 mi Calm Calm - N/A   Clear
11:52 AM 63.0 °F - 42.1 °F 46% 30.10 in 10.0 mi NE 4.6 mph - N/A   Mostly Cloudy
12:52 PM 63.0 °F - 41.0 °F 45% 30.08 in 10.0 mi WSW 6.9 mph - N/A   Mostly Cloudy
1:52 PM 62.1 °F - 42.1 °F 48% 30.07 in 10.0 mi West 5.8 mph - N/A   Overcast
2:52 PM 61.0 °F - 42.1 °F 50% 30.07 in 10.0 mi WNW 4.6 mph - 0.00 in   Overcast
3:52 PM 62.1 °F - 42.1 °F 48% 30.07 in 10.0 mi West 3.5 mph - N/A   Overcast
5:52 PM 60.1 °F - 42.1 °F 51% 30.07 in 10.0 mi Calm Calm - N/A   Overcast
6:52 PM 59.0 °F - 44.1 °F 58% 30.08 in 10.0 mi Calm Calm - N/A   Overcast
7:52 PM 57.0 °F - 46.0 °F 67% 30.09 in 10.0 mi Calm Calm - 0.00 in Rain Light Rain
8:52 PM 55.0 °F - 48.9 °F 80% 30.10 in 8.0 mi Calm Calm - 0.02 in Rain Light Rain
9:52 PM 54.0 °F - 51.1 °F 90% 30.11 in 9.0 mi SW 3.5 mph - 0.03 in   Overcast
10:52 PM 54.0 °F - 51.1 °F 90% 30.11 in 9.0 mi Calm Calm - 0.00 in   Overcast
11:52 PM 54.0 °F - 50.0 °F 86% 30.12 in 10.0 mi Calm Calm - 0.01 in   Overcast